| time (UTC) | temp F | wind direction | speed MPH | gust MPH | rain 1hr in | rain 24hr in | rain mn in | humidity % | barometer mb |
| 20260901174550 | 78 | 308 | 4.0 | 9.0 | 0.00 | 0.00 | 0.00 | 46 | 1007.9 |
| 20260901173057 | 76 | 41 | 7.0 | 10.0 | 0.00 | 0.00 | 0.00 | 53 | 1008.7 |
| 20260901171551 | 74 | 24 | 5.0 | 8.0 | 0.00 | 0.00 | 0.00 | 55 | 1008.9 |
| 20260901170044 | 73 | 42 | 3.0 | 6.0 | 0.00 | 0.00 | 0.00 | 56 | 1009.1 |
| 20260901164542 | 71 | 356 | 2.0 | 5.0 | 0.00 | 0.00 | 0.00 | 61 | 1009.1 |
| 20260901163032 | 69 | 290 | 2.0 | 9.0 | 0.00 | 0.00 | 0.00 | 66 | 1009.1 |
| 20260901161548 | 67 | 248 | 1.0 | 5.0 | 0.00 | 0.00 | 0.00 | 71 | 1009.0 |
| 20260901160032 | 66 | 328 | 2.0 | 4.0 | 0.00 | 0.00 | 0.00 | 73 | 1008.9 |
| 20260901154532 | 65 | 279 | 3.0 | 6.0 | 0.00 | 0.00 | 0.00 | 74 | 1008.6 |
| 20260901153029 | 64 | 293 | 2.0 | 4.0 | 0.00 | 0.00 | 0.00 | 79 | 1008.8 |
| 20260901151531 | 64 | 212 | 0.0 | 0.0 | 0.00 | 0.00 | 0.00 | 82 | 1008.8 |
| 20260901150037 | 63 | 212 | 0.0 | 0.0 | 0.00 | 0.00 | 0.00 | 83 | 1008.9 |
| 20260901144537 | 63 | 212 | 1.0 | 4.0 | 0.00 | 0.00 | 0.00 | 83 | 1009.2 |
| 20260901143026 | 63 | 227 | 0.0 | 3.0 | 0.00 | 0.00 | 0.00 | 81 | 1008.9 |
| 20260901141525 | 63 | 227 | 2.0 | 4.0 | 0.00 | 0.00 | 0.00 | 81 | 1009.1 |
| 20260901140024 | 63 | 166 | 2.0 | 6.0 | 0.00 | 0.00 | 0.00 | 80 | 1009.2 |
| 20260901134525 | 63 | 79 | 0.0 | 1.0 | 0.00 | 0.00 | 0.00 | 78 | 1009.0 |
| 20260901133022 | 63 | 55 | 0.0 | 1.0 | 0.00 | 0.00 | 0.00 | 79 | 1008.7 |
| 20260901131525 | 63 | 133 | 0.0 | 0.0 | 0.00 | 0.00 | 0.00 | 80 | 1008.6 |
| 20260901130025 | 62 | 133 | 0.0 | 0.0 | 0.00 | 0.00 | 0.00 | 81 | 1008.5 |
| 20260901124520 | 62 | 133 | 0.0 | 7.0 | 0.00 | 0.00 | 0.00 | 81 | 1008.5 |
| 20260901123019 | 62 | 89 | 0.0 | 0.0 | 0.00 | 0.00 | 0.00 | 82 | 1008.3 |
| 20260901121518 | 62 | 89 | 0.0 | 5.0 | 0.00 | 0.00 | 0.00 | 82 | 1008.4 |
| 20260901120017 | 62 | 254 | 0.0 | 0.0 | 0.00 | 0.00 | 0.00 | 82 | 1008.3 |
| 20260901114515 | 62 | 254 | 0.0 | 4.0 | 0.00 | 0.00 | 0.00 | 81 | 1008.1 |
| 20260901113014 | 62 | 254 | 0.0 | 2.0 | 0.00 | 0.00 | 0.00 | 81 | 1008.3 |
| 20260901111512 | 63 | 286 | 0.0 | 3.0 | 0.00 | 0.00 | 0.00 | 80 | 1007.9 |
| 20260901110011 | 63 | 326 | 0.0 | 4.0 | 0.00 | 0.00 | 0.00 | 79 | 1007.8 |
| 20260901104512 | 63 | 288 | 1.0 | 6.0 | 0.00 | 0.00 | 0.00 | 79 | 1008.0 |
| 20260901103008 | 63 | 346 | 4.0 | 7.0 | 0.00 | 0.00 | 0.00 | 79 | 1008.1 |
| 20260901101508 | 63 | 24 | 5.0 | 9.0 | 0.00 | 0.00 | 0.00 | 79 | 1008.2 |
| 20260901100005 | 64 | 16 | 6.0 | 10.0 | 0.00 | 0.00 | 0.00 | 78 | 1008.4 |
| 20260901094503 | 64 | 316 | 2.0 | 4.0 | 0.00 | 0.00 | 0.00 | 75 | 1009.4 |
| 20260901093103 | 64 | 41 | 0.0 | 4.0 | 0.00 | 0.00 | 0.00 | 74 | 1009.2 |
| 20260901091604 | 64 | 49 | 3.0 | 5.0 | 0.00 | 0.00 | 0.00 | 73 | 1008.9 |
| 20260901090058 | 64 | 34 | 3.0 | 6.0 | 0.00 | 0.00 | 0.00 | 72 | 1008.9 |
| 20260901084558 | 65 | 28 | 0.0 | 7.0 | 0.00 | 0.00 | 0.00 | 70 | 1008.8 |
| 20260901083057 | 65 | 80 | 0.0 | 8.0 | 0.00 | 0.00 | 0.00 | 70 | 1008.8 |
| 20260901081554 | 65 | 77 | 0.0 | 0.0 | 0.00 | 0.00 | 0.00 | 68 | 1008.8 |
| 20260901080053 | 65 | 77 | 0.0 | 0.0 | 0.00 | 0.00 | 0.00 | 66 | 1008.8 |
| 20260901074551 | 66 | 77 | 0.0 | 4.0 | 0.00 | 0.00 | 0.00 | 65 | 1009.1 |
| 20260901073057 | 66 | 77 | 0.0 | 0.0 | 0.00 | 0.00 | 0.00 | 64 | 1009.2 |
| 20260901071548 | 67 | 77 | 0.0 | 1.0 | 0.00 | 0.00 | 0.00 | 63 | 1009.1 |
| 20260901070054 | 67 | 88 | 0.0 | 2.0 | 0.00 | 0.00 | 0.00 | 62 | 1009.2 |
| 20260901064544 | 67 | 88 | 0.0 | 3.0 | 0.00 | 0.00 | 0.00 | 62 | 1009.1 |
| 20260901063042 | 68 | 88 | 0.0 | 5.0 | 0.00 | 0.00 | 0.00 | 62 | 1009.1 |
| 20260901061539 | 68 | 298 | 1.0 | 3.0 | 0.00 | 0.00 | 0.00 | 61 | 1008.7 |
| 20260901060036 | 69 | 61 | 0.0 | 2.0 | 0.00 | 0.00 | 0.00 | 60 | 1008.7 |
| 20260901054536 | 69 | 55 | 3.0 | 4.0 | 0.00 | 0.00 | 0.00 | 59 | 1008.6 |
| 20260901053036 | 70 | 68 | 3.0 | 7.0 | 0.00 | 0.00 | 0.00 | 59 | 1008.8 |
| 20260901051542 | 70 | 72 | 0.0 | 3.0 | 0.00 | 0.00 | 0.00 | 58 | 1008.7 |
| 20260901050035 | 70 | 64 | 3.0 | 5.0 | 0.00 | 0.00 | 0.00 | 59 | 1008.7 |
| 20260901044551 | 70 | 172 | 0.0 | 4.0 | 0.00 | 0.00 | 0.00 | 58 | 1009.0 |
| 20260901043034 | 70 | 172 | 0.0 | 2.0 | 0.00 | 0.00 | 0.00 | 58 | 1009.0 |
| 20260901041533 | 71 | 115 | 3.0 | 5.0 | 0.00 | 0.00 | 0.00 | 55 | 1009.0 |
| 20260901040033 | 72 | 138 | 0.0 | 2.0 | 0.00 | 0.00 | 0.00 | 53 | 1009.0 |
| 20260901034535 | 73 | 132 | 3.0 | 8.0 | 0.00 | 0.00 | 0.00 | 52 | 1009.2 |
| 20260901033049 | 73 | 188 | 1.0 | 10.0 | 0.00 | 0.00 | 0.00 | 50 | 1009.4 |
| 20260901031533 | 73 | 179 | 4.0 | 9.0 | 0.00 | 0.00 | 0.00 | 49 | 1009.6 |
| 20260901030035 | 73 | 216 | 6.0 | 13.0 | 0.00 | 0.00 | 0.00 | 51 | 1009.3 |
| 20260901024530 | 72 | 240 | 3.0 | 7.0 | 0.00 | 0.00 | 0.00 | 53 | 1009.2 |
| 20260901023031 | 73 | 211 | 4.0 | 8.0 | 0.00 | 0.00 | 0.00 | 51 | 1008.5 |
| 20260901021536 | 73 | 170 | 5.0 | 8.0 | 0.00 | 0.00 | 0.00 | 50 | 1007.7 |
| 20260901020033 | 74 | 199 | 8.0 | 12.0 | 0.00 | 0.00 | 0.00 | 47 | 1007.5 |
| 20260901014528 | 75 | 136 | 3.0 | 6.0 | 0.00 | 0.00 | 0.00 | 47 | 1006.9 |
| 20260901013032 | 76 | 139 | 4.0 | 13.0 | 0.00 | 0.00 | 0.00 | 47 | 1006.7 |
| 20260901011528 | 77 | 110 | 4.0 | 14.0 | 0.00 | 0.00 | 0.00 | 45 | 1006.7 |
| 20260901010030 | 78 | 76 | 2.0 | 15.0 | 0.00 | 0.00 | 0.00 | 42 | 1006.1 |
| 20260901004526 | 79 | 94 | 2.0 | 5.0 | 0.00 | 0.00 | 0.00 | 39 | 1005.8 |
| 20260901003036 | 79 | 181 | 1.0 | 3.0 | 0.00 | 0.00 | 0.00 | 39 | 1005.8 |
| 20260901001524 | 80 | 181 | 1.0 | 4.0 | 0.00 | 0.00 | 0.00 | 38 | 1005.8 |
| 20260901000031 | 79 | 130 | 1.0 | 7.0 | 0.00 | 0.00 | 0.00 | 40 | 1006.1 |
| 20260831234522 | 79 | 178 | 2.0 | 6.0 | 0.00 | 0.00 | 0.00 | 40 | 1006.0 |
| 20260831233021 | 79 | 153 | 3.0 | 8.0 | 0.00 | 0.00 | 0.00 | 41 | 1006.0 |
| 20260831231519 | 80 | 164 | 5.0 | 11.0 | 0.00 | 0.00 | 0.00 | 40 | 1006.4 |
| 20260831230018 | 81 | 175 | 4.0 | 14.0 | 0.00 | 0.00 | 0.00 | 34 | 1006.5 |
| 20260831224514 | 83 | 161 | 6.0 | 12.0 | 0.00 | 0.00 | 0.00 | 31 | 1006.8 |
| 20260831223012 | 83 | 136 | 7.0 | 12.0 | 0.00 | 0.00 | 0.00 | 30 | 1007.1 |
| 20260831221511 | 84 | 122 | 5.0 | 9.0 | 0.00 | 0.00 | 0.00 | 28 | 1007.6 |
| 20260831220020 | 84 | 171 | 4.0 | 11.0 | 0.00 | 0.00 | 0.00 | 27 | 1007.7 |
| 20260831214509 | 84 | 78 | 3.0 | 7.0 | 0.00 | 0.00 | 0.00 | 27 | 1007.5 |
| 20260831213010 | 84 | 215 | 1.0 | 7.0 | 0.00 | 0.00 | 0.00 | 27 | 1007.6 |
| 20260831211507 | 84 | 261 | 0.0 | 4.0 | 0.00 | 0.00 | 0.00 | 26 | 1007.6 |
| 20260831210007 | 84 | 213 | 3.0 | 7.0 | 0.00 | 0.00 | 0.00 | 27 | 1007.7 |
| 20260831204507 | 84 | 281 | 3.0 | 6.0 | 0.00 | 0.00 | 0.00 | 28 | 1008.0 |
| 20260831203006 | 84 | 332 | 2.0 | 8.0 | 0.00 | 0.00 | 0.00 | 28 | 1008.1 |
| 20260831201505 | 84 | 299 | 6.0 | 12.0 | 0.00 | 0.00 | 0.00 | 27 | 1008.1 |
| 20260831200005 | 83 | 233 | 2.0 | 15.0 | 0.00 | 0.00 | 0.00 | 28 | 1008.1 |
| 20260831194507 | 84 | 308 | 7.0 | 15.0 | 0.00 | 0.00 | 0.00 | 27 | 1008.2 |
| 20260831193004 | 84 | 317 | 6.0 | 15.0 | 0.00 | 0.00 | 0.00 | 27 | 1008.2 |
| 20260831191504 | 84 | 280 | 6.0 | 16.0 | 0.00 | 0.00 | 0.00 | 27 | 1008.4 |
| 20260831190004 | 85 | 297 | 5.0 | 13.0 | 0.00 | 0.00 | 0.00 | 27 | 1008.4 |
| 20260831184503 | 84 | 291 | 7.0 | 14.0 | 0.00 | 0.00 | 0.00 | 29 | 1008.8 |
| 20260831183104 | 84 | 250 | 5.0 | 11.0 | 0.00 | 0.00 | 0.00 | 28 | 1009.0 |
| 20260831181602 | 83 | 261 | 5.0 | 11.0 | 0.00 | 0.00 | 0.00 | 30 | 1009.2 |
| 20260831180100 | 81 | 302 | 5.0 | 13.0 | 0.00 | 0.00 | 0.00 | 31 | 1009.6 |